Tracking 32420 objects as of 8-Dec-2025
HD Live streaming from Space Station
objects crossing your sky now

STARLINK-30141

Track STARLINK-30141 now!
10-day predictions
STARLINK-30141 is classified as:


NORAD ID: 57620
Int'l Code: 2023-119U
Perigee: 565.6 km
Apogee: 566.9 km
Inclination: 43.0 °
Period: 95.8 minutes
Semi major axis: 6937 km
RCS: Unknown
Launch date: August 11, 2023
Source: United States (US)
Launch site: AIR FORCE EASTERN TEST RANGE (AFETR)
Your satellite tracking list
Your tracking list is empty




NASA's NSSDC Master Catalog

Two Line Element Set (TLE):
1 57620U 23119U   25341.95794135  .00000630  00000-0  61683-4 0  9991
2 57620  43.0028 220.3516 0000977 272.8270  87.2461 15.02523798129281
Source of the keplerian elements: AFSPC